User: anonymous   Login
Location: Unspecified
(0.0000°N, 0.0000°E)
Time: 05:16:17
(UTC+00:00)
Language:

MICROSCOPE - Orbit

View from above orbital plane
View from above orbital plane
View from above satellite
View from above satellite

Ground track
Ground track

The orbit data is extracted from the following two-line orbital elements,

1 41457U 16025B   18292.56584825 +.00000113 +00000-0 +37453-4 0  9991
2 41457 098.2396 296.3828 0001187 126.4940 233.6366 14.53986821131732
Epoch (UTC): 19 October 2018 13:34:49
Eccentricity: 0.0001187
inclination: 98.2396°
perigee height: 712 km
apogee height: 713 km
right ascension of ascending node: 296.3828°
argument of perigee: 126.4940°
revolutions per day: 14.53986821
mean anomaly at epoch: 233.6366°
orbit number at epoch: 13173

The dashed part of the orbit path shows where the satellite is in the earth's shadow,  

DLR